owner,sensor,date,latitude,longitude,vertical_datum,sea_water_practical_salinity,qcFlag 
SCCF RECON,ioos:station:SCCF:16:1,2009-11-01T00:00:00Z,26.4345,-81.9647,2.623,34.08,1111122 
SCCF RECON,ioos:station:SCCF:16:1,2009-11-01T01:00:00Z,26.4345,-81.9647,2.797,34.04,1111122 
SCCF RECON,ioos:station:SCCF:16:1,2009-11-01T02:00:00Z,26.4345,-81.9647,2.87,34.03,1111122 
SCCF RECON,ioos:station:SCCF:16:1,2009-11-01T03:00:00Z,26.4345,-81.9647,2.924,34.05,1111122 
SCCF RECON,ioos:station:SCCF:16:1,2009-11-01T04:00:00Z,26.4345,-81.9647,2.959,34.42,1111122 
SCCF RECON,ioos:station:SCCF:16:1,2009-11-01T05:00:00Z,26.4345,-81.9647,2.864,34.5,1111122 
SCCF RECON,ioos:station:SCCF:16:1,2009-11-01T06:00:00Z,26.4345,-81.9647,2.653,34.48,1111122 
SCCF RECON,ioos:station:SCCF:16:1,2009-11-01T07:00:00Z,26.4345,-81.9647,2.457,34.14,1111122 
SCCF RECON,ioos:station:SCCF:16:1,2009-11-01T08:00:00Z,26.4345,-81.9647,2.279,33.86,1111122 
SCCF RECON,ioos:station:SCCF:16:1,2009-11-01T09:00:00Z,26.4345,-81.9647,2.087,34.03,1111122 
SCCF RECON,ioos:station:SCCF:16:1,2009-11-01T10:00:00Z,26.4345,-81.9647,1.986,34.0,1111122 
SCCF RECON,ioos:station:SCCF:16:1,2009-11-01T11:00:00Z,26.4345,-81.9647,2.064,33.48,1111122 
SCCF RECON,ioos:station:SCCF:16:1,2009-11-01T12:00:00Z,26.4345,-81.9647,2.258,33.6,1111122 
SCCF RECON,ioos:station:SCCF:16:1,2009-11-01T13:00:00Z,26.4345,-81.9647,2.454,33.7,1111122 
SCCF RECON,ioos:station:SCCF:16:1,2009-11-01T14:00:00Z,26.4345,-81.9647,2.65,34.14,1111122 
SCCF RECON,ioos:station:SCCF:16:1,2009-11-01T15:00:00Z,26.4345,-81.9647,2.775,34.24,1111122 
SCCF RECON,ioos:station:SCCF:16:1,2009-11-01T16:00:00Z,26.4345,-81.9647,2.839,34.35,1111122 
SCCF RECON,ioos:station:SCCF:16:1,2009-11-01T17:00:00Z,26.4345,-81.9647,2.821,34.58,1111122 
SCCF RECON,ioos:station:SCCF:16:1,2009-11-01T18:00:00Z,26.4345,-81.9647,2.794,34.61,1111122 
SCCF RECON,ioos:station:SCCF:16:1,2009-11-01T19:00:00Z,26.4345,-81.9647,2.666,34.57,1111122 
SCCF RECON,ioos:station:SCCF:16:1,2009-11-01T20:00:00Z,26.4345,-81.9647,2.54,34.55,1111122 
SCCF RECON,ioos:station:SCCF:16:1,2009-11-01T21:00:00Z,26.4345,-81.9647,2.499,34.29,1111122 
SCCF RECON,ioos:station:SCCF:16:1,2009-11-01T22:00:00Z,26.4345,-81.9647,2.457,34.13,1111122 
SCCF RECON,ioos:station:SCCF:16:1,2009-11-01T23:00:00Z,26.4345,-81.9647,2.464,34.15,1111122 
SCCF RECON,ioos:station:SCCF:16:1,2009-11-02T00:00:00Z,26.4345,-81.9647,2.562,34.11,1111122 
SCCF RECON,ioos:station:SCCF:16:1,2009-11-02T01:00:00Z,26.4345,-81.9647,2.712,34.17,1111122 
SCCF RECON,ioos:station:SCCF:16:1,2009-11-02T02:00:00Z,26.4345,-81.9647,2.839,34.38,1111122 
SCCF RECON,ioos:station:SCCF:16:1,2009-11-02T03:00:00Z,26.4345,-81.9647,2.916,34.51,1111122 
SCCF RECON,ioos:station:SCCF:16:1,2009-11-02T04:00:00Z,26.4345,-81.9647,2.963,34.59,1111122 
SCCF RECON,ioos:station:SCCF:16:1,2009-11-02T05:00:00Z,26.4345,-81.9647,2.929,34.62,1111122 
SCCF RECON,ioos:station:SCCF:16:1,2009-11-02T06:00:00Z,26.4345,-81.9647,2.761,34.62,1111122 
SCCF RECON,ioos:station:SCCF:16:1,2009-11-02T07:00:00Z,26.4345,-81.9647,2.51,34.39,1111122 
SCCF RECON,ioos:station:SCCF:16:1,2009-11-02T08:00:00Z,26.4345,-81.9647,2.287,34.07,1111122 
SCCF RECON,ioos:station:SCCF:16:1,2009-11-02T09:00:00Z,26.4345,-81.9647,2.125,33.95,1111122 
SCCF RECON,ioos:station:SCCF:16:1,2009-11-02T10:00:00Z,26.4345,-81.9647,1.961,33.88,1111122 
SCCF RECON,ioos:station:SCCF:16:1,2009-11-02T11:00:00Z,26.4345,-81.9647,1.944,33.09,1111122 
SCCF RECON,ioos:station:SCCF:16:1,2009-11-02T12:00:00Z,26.4345,-81.9647,2.091,32.91,1111122 
SCCF RECON,ioos:station:SCCF:16:1,2009-11-02T13:00:00Z,26.4345,-81.9647,2.326,32.67,1111122 
SCCF RECON,ioos:station:SCCF:16:1,2009-11-02T14:00:00Z,26.4345,-81.9647,2.532,33.66,1111122 
SCCF RECON,ioos:station:SCCF:16:1,2009-11-02T15:00:00Z,26.4345,-81.9647,2.681,34.28,1111122 
SCCF RECON,ioos:station:SCCF:16:1,2009-11-02T16:00:00Z,26.4345,-81.9647,2.813,34.4,1111122 
SCCF RECON,ioos:station:SCCF:16:1,2009-11-02T17:00:00Z,26.4345,-81.9647,2.868,34.56,1111122 
SCCF RECON,ioos:station:SCCF:16:1,2009-11-02T18:00:00Z,26.4345,-81.9647,2.829,34.6,1111122 
SCCF RECON,ioos:station:SCCF:16:1,2009-11-02T19:00:00Z,26.4345,-81.9647,2.728,34.62,1111122 
SCCF RECON,ioos:station:SCCF:16:1,2009-11-02T20:00:00Z,26.4345,-81.9647,2.639,34.63,1111122 
SCCF RECON,ioos:station:SCCF:16:1,2009-11-02T21:00:00Z,26.4345,-81.9647,2.569,34.54,1111122 
SCCF RECON,ioos:station:SCCF:16:1,2009-11-02T22:00:00Z,26.4345,-81.9647,2.537,34.36,1111122 
SCCF RECON,ioos:station:SCCF:16:1,2009-11-02T23:00:00Z,26.4345,-81.9647,2.517,33.9,1111122 
SCCF RECON,ioos:station:SCCF:16:1,2009-11-03T00:00:00Z,26.4345,-81.9647,2.572,34.16,1111122 
SCCF RECON,ioos:station:SCCF:16:1,2009-11-03T01:00:00Z,26.4345,-81.9647,2.695,33.86,1111122 
SCCF RECON,ioos:station:SCCF:16:1,2009-11-03T02:00:00Z,26.4345,-81.9647,2.832,34.27,1111122 
SCCF RECON,ioos:station:SCCF:16:1,2009-11-03T03:00:00Z,26.4345,-81.9647,2.919,34.54,1111122 
SCCF RECON,ioos:station:SCCF:16:1,2009-11-03T04:00:00Z,26.4345,-81.9647,2.978,34.52,1111122 
SCCF RECON,ioos:station:SCCF:16:1,2009-11-03T05:00:00Z,26.4345,-81.9647,2.963,34.66,1111122 
SCCF RECON,ioos:station:SCCF:16:1,2009-11-03T06:00:00Z,26.4345,-81.9647,2.859,34.75,1111122 
SCCF RECON,ioos:station:SCCF:16:1,2009-11-03T07:00:00Z,26.4345,-81.9647,2.673,34.7,1111122 
SCCF RECON,ioos:station:SCCF:16:1,2009-11-03T08:00:00Z,26.4345,-81.9647,2.43,34.43,1111122 
SCCF RECON,ioos:station:SCCF:16:1,2009-11-03T09:00:00Z,26.4345,-81.9647,2.209,34.08,1111122 
SCCF RECON,ioos:station:SCCF:16:1,2009-11-03T10:00:00Z,26.4345,-81.9647,1.999,33.56,1111122 
SCCF RECON,ioos:station:SCCF:16:1,2009-11-03T11:00:00Z,26.4345,-81.9647,1.865,33.19,1111122 
SCCF RECON,ioos:station:SCCF:16:1,2009-11-03T12:00:00Z,26.4345,-81.9647,1.892,32.49,1111122 
SCCF RECON,ioos:station:SCCF:16:1,2009-11-03T13:00:00Z,26.4345,-81.9647,2.091,32.68,1111122 
SCCF RECON,ioos:station:SCCF:16:1,2009-11-03T14:00:00Z,26.4345,-81.9647,2.334,32.54,1111122 
SCCF RECON,ioos:station:SCCF:16:1,2009-11-03T15:00:00Z,26.4345,-81.9647,2.522,33.12,1111122 
SCCF RECON,ioos:station:SCCF:16:1,2009-11-03T16:00:00Z,26.4345,-81.9647,2.649,34.08,1111122 
SCCF RECON,ioos:station:SCCF:16:1,2009-11-03T17:00:00Z,26.4345,-81.9647,2.749,34.6,1111122 
SCCF RECON,ioos:station:SCCF:16:1,2009-11-03T18:00:00Z,26.4345,-81.9647,2.797,34.73,1111122 
SCCF RECON,ioos:station:SCCF:16:1,2009-11-03T19:00:00Z,26.4345,-81.9647,2.743,34.72,1111122 
SCCF RECON,ioos:station:SCCF:16:1,2009-11-03T20:00:00Z,26.4345,-81.9647,2.648,34.72,1111122 
SCCF RECON,ioos:station:SCCF:16:1,2009-11-03T21:00:00Z,26.4345,-81.9647,2.574,34.68,1111122 
SCCF RECON,ioos:station:SCCF:16:1,2009-11-03T22:00:00Z,26.4345,-81.9647,2.525,34.37,1111122 
SCCF RECON,ioos:station:SCCF:16:1,2009-11-03T23:00:00Z,26.4345,-81.9647,2.483,34.53,1111122 
SCCF RECON,ioos:station:SCCF:16:1,2009-11-04T00:00:00Z,26.4345,-81.9647,2.477,34.15,1111122 
SCCF RECON,ioos:station:SCCF:16:1,2009-11-04T01:00:00Z,26.4345,-81.9647,2.561,33.66,1111122 
SCCF RECON,ioos:station:SCCF:16:1,2009-11-04T02:00:00Z,26.4345,-81.9647,2.724,33.53,1111122 
SCCF RECON,ioos:station:SCCF:16:1,2009-11-04T03:00:00Z,26.4345,-81.9647,2.837,33.64,1111122 
SCCF RECON,ioos:station:SCCF:16:1,2009-11-04T04:00:00Z,26.4345,-81.9647,2.873,34.16,1111122 
SCCF RECON,ioos:station:SCCF:16:1,2009-11-04T05:00:00Z,26.4345,-81.9647,2.899,34.5,1111122 
SCCF RECON,ioos:station:SCCF:16:1,2009-11-04T06:00:00Z,26.4345,-81.9647,2.875,34.67,1111122 
SCCF RECON,ioos:station:SCCF:16:1,2009-11-04T07:00:00Z,26.4345,-81.9647,2.703,34.56,1111122 
SCCF RECON,ioos:station:SCCF:16:1,2009-11-04T08:00:00Z,26.4345,-81.9647,2.46,34.33,1111122 
SCCF RECON,ioos:station:SCCF:16:1,2009-11-04T09:00:00Z,26.4345,-81.9647,2.247,34.29,1111122 
SCCF RECON,ioos:station:SCCF:16:1,2009-11-04T10:00:00Z,26.4345,-81.9647,2.039,33.86,1111122 
SCCF RECON,ioos:station:SCCF:16:1,2009-11-04T11:00:00Z,26.4345,-81.9647,1.846,33.61,1111122 
SCCF RECON,ioos:station:SCCF:16:1,2009-11-04T12:00:00Z,26.4345,-81.9647,1.723,32.42,1111122 
SCCF RECON,ioos:station:SCCF:16:1,2009-11-04T13:00:00Z,26.4345,-81.9647,1.808,31.91,1111122 
SCCF RECON,ioos:station:SCCF:16:1,2009-11-04T14:00:00Z,26.4345,-81.9647,2.041,31.81,1111122 
SCCF RECON,ioos:station:SCCF:16:1,2009-11-04T15:00:00Z,26.4345,-81.9647,2.299,32.27,1111122 
SCCF RECON,ioos:station:SCCF:16:1,2009-11-04T16:00:00Z,26.4345,-81.9647,2.452,32.37,1111122 
SCCF RECON,ioos:station:SCCF:16:1,2009-11-04T17:00:00Z,26.4345,-81.9647,2.619,32.97,1111122 
SCCF RECON,ioos:station:SCCF:16:1,2009-11-04T18:00:00Z,26.4345,-81.9647,2.71,33.41,1111122 
SCCF RECON,ioos:station:SCCF:16:1,2009-11-04T19:00:00Z,26.4345,-81.9647,2.71,33.71,1111122 
SCCF RECON,ioos:station:SCCF:16:1,2009-11-04T20:00:00Z,26.4345,-81.9647,2.665,33.83,1111122 
SCCF RECON,ioos:station:SCCF:16:1,2009-11-04T21:00:00Z,26.4345,-81.9647,2.636,33.95,1111122 
SCCF RECON,ioos:station:SCCF:16:1,2009-11-04T22:00:00Z,26.4345,-81.9647,2.634,34.04,1111122 
SCCF RECON,ioos:station:SCCF:16:1,2009-11-04T23:00:00Z,26.4345,-81.9647,2.568,34.11,1111122 
SCCF RECON,ioos:station:SCCF:16:1,2009-11-05T00:00:00Z,26.4345,-81.9647,2.539,34.13,1111122 
SCCF RECON,ioos:station:SCCF:16:1,2009-11-05T01:00:00Z,26.4345,-81.9647,2.562,34.14,1111122 
SCCF RECON,ioos:station:SCCF:16:1,2009-11-05T02:00:00Z,26.4345,-81.9647,2.645,34.19,1111122 
SCCF RECON,ioos:station:SCCF:16:1,2009-11-05T03:00:00Z,26.4345,-81.9647,2.791,34.35,1111122 
SCCF RECON,ioos:station:SCCF:16:1,2009-11-05T04:00:00Z,26.4345,-81.9647,2.898,34.52,1111122 
SCCF RECON,ioos:station:SCCF:16:1,2009-11-05T05:00:00Z,26.4345,-81.9647,2.91,34.57,1111122 
SCCF RECON,ioos:station:SCCF:16:1,2009-11-05T06:00:00Z,26.4345,-81.9647,2.882,34.61,1111122 
SCCF RECON,ioos:station:SCCF:16:1,2009-11-05T07:00:00Z,26.4345,-81.9647,2.829,34.6,1111122 
SCCF RECON,ioos:station:SCCF:16:1,2009-11-05T08:00:00Z,26.4345,-81.9647,2.673,34.57,1111122 
SCCF RECON,ioos:station:SCCF:16:1,2009-11-05T09:00:00Z,26.4345,-81.9647,2.454,34.46,1111122 
SCCF RECON,ioos:station:SCCF:16:1,2009-11-05T10:00:00Z,26.4345,-81.9647,2.235,34.22,1111122 
SCCF RECON,ioos:station:SCCF:16:1,2009-11-05T11:00:00Z,26.4345,-81.9647,2.018,33.63,1111122 
SCCF RECON,ioos:station:SCCF:16:1,2009-11-05T12:00:00Z,26.4345,-81.9647,1.798,33.46,1111122 
SCCF RECON,ioos:station:SCCF:16:1,2009-11-05T13:00:00Z,26.4345,-81.9647,1.714,32.24,1111122 
SCCF RECON,ioos:station:SCCF:16:1,2009-11-05T14:00:00Z,26.4345,-81.9647,1.825,32.14,1111122 
SCCF RECON,ioos:station:SCCF:16:1,2009-11-05T15:00:00Z,26.4345,-81.9647,2.063,32.05,1111122 
SCCF RECON,ioos:station:SCCF:16:1,2009-11-05T16:00:00Z,26.4345,-81.9647,2.232,32.21,1111122 
SCCF RECON,ioos:station:SCCF:16:1,2009-11-05T17:00:00Z,26.4345,-81.9647,2.377,32.63,1111122 
SCCF RECON,ioos:station:SCCF:16:1,2009-11-05T18:00:00Z,26.4345,-81.9647,2.516,32.7,1111122 
SCCF RECON,ioos:station:SCCF:16:1,2009-11-05T19:00:00Z,26.4345,-81.9647,2.589,33.22,1111122 
SCCF RECON,ioos:station:SCCF:16:1,2009-11-05T20:00:00Z,26.4345,-81.9647,2.617,33.65,1111122 
SCCF RECON,ioos:station:SCCF:16:1,2009-11-05T21:00:00Z,26.4345,-81.9647,2.592,33.61,1111122 
SCCF RECON,ioos:station:SCCF:16:1,2009-11-05T22:00:00Z,26.4345,-81.9647,2.528,33.63,1111122 
SCCF RECON,ioos:station:SCCF:16:1,2009-11-05T23:00:00Z,26.4345,-81.9647,2.488,33.7,1111122 
SCCF RECON,ioos:station:SCCF:16:1,2009-11-06T00:00:00Z,26.4345,-81.9647,2.484,33.75,1111122 
SCCF RECON,ioos:station:SCCF:16:1,2009-11-06T01:00:00Z,26.4345,-81.9647,2.496,33.8,1111122 
SCCF RECON,ioos:station:SCCF:16:1,2009-11-06T02:00:00Z,26.4345,-81.9647,2.479,33.93,1111122 
SCCF RECON,ioos:station:SCCF:16:1,2009-11-06T03:00:00Z,26.4345,-81.9647,2.562,34.02,1111122 
SCCF RECON,ioos:station:SCCF:16:1,2009-11-06T04:00:00Z,26.4345,-81.9647,2.659,34.14,1111122 
SCCF RECON,ioos:station:SCCF:16:1,2009-11-06T05:00:00Z,26.4345,-81.9647,2.669,34.26,1111122 
SCCF RECON,ioos:station:SCCF:16:1,2009-11-06T06:00:00Z,26.4345,-81.9647,2.703,34.4,1111122 
SCCF RECON,ioos:station:SCCF:16:1,2009-11-06T07:00:00Z,26.4345,-81.9647,2.688,34.51,1111122 
SCCF RECON,ioos:station:SCCF:16:1,2009-11-06T08:00:00Z,26.4345,-81.9647,2.649,34.54,1111122 
SCCF RECON,ioos:station:SCCF:16:1,2009-11-06T09:00:00Z,26.4345,-81.9647,2.505,34.5,1111122 
SCCF RECON,ioos:station:SCCF:16:1,2009-11-06T10:00:00Z,26.4345,-81.9647,2.318,34.36,1111122 
SCCF RECON,ioos:station:SCCF:16:1,2009-11-06T11:00:00Z,26.4345,-81.9647,2.136,33.87,1111122 
SCCF RECON,ioos:station:SCCF:16:1,2009-11-06T12:00:00Z,26.4345,-81.9647,1.911,32.88,1111122 
SCCF RECON,ioos:station:SCCF:16:1,2009-11-06T13:00:00Z,26.4345,-81.9647,1.747,32.99,1111122 
SCCF RECON,ioos:station:SCCF:16:1,2009-11-06T14:00:00Z,26.4345,-81.9647,1.67,30.94,1111122 
SCCF RECON,ioos:station:SCCF:16:1,2009-11-06T15:00:00Z,26.4345,-81.9647,1.81,30.63,1111122 
SCCF RECON,ioos:station:SCCF:16:1,2009-11-06T16:00:00Z,26.4345,-81.9647,1.998,30.2,1111122 
SCCF RECON,ioos:station:SCCF:16:1,2009-11-06T17:00:00Z,26.4345,-81.9647,2.176,30.69,1111122 
SCCF RECON,ioos:station:SCCF:16:1,2009-11-06T18:00:00Z,26.4345,-81.9647,2.342,30.94,1111122 
SCCF RECON,ioos:station:SCCF:16:1,2009-11-06T19:00:00Z,26.4345,-81.9647,2.443,31.88,1111122 
SCCF RECON,ioos:station:SCCF:16:1,2009-11-06T20:00:00Z,26.4345,-81.9647,2.493,32.47,1111122 
SCCF RECON,ioos:station:SCCF:16:1,2009-11-06T21:00:00Z,26.4345,-81.9647,2.517,33.42,1111122 
SCCF RECON,ioos:station:SCCF:16:1,2009-11-06T22:00:00Z,26.4345,-81.9647,2.524,33.79,1111122 
SCCF RECON,ioos:station:SCCF:16:1,2009-11-06T23:00:00Z,26.4345,-81.9647,2.493,33.95,1111122 
SCCF RECON,ioos:station:SCCF:16:1,2009-11-07T00:00:00Z,26.4345,-81.9647,2.45,34.04,1111122 
SCCF RECON,ioos:station:SCCF:16:1,2009-11-07T01:00:00Z,26.4345,-81.9647,2.434,34.11,1111122 
SCCF RECON,ioos:station:SCCF:16:1,2009-11-07T02:00:00Z,26.4345,-81.9647,2.434,34.15,1111122 
SCCF RECON,ioos:station:SCCF:16:1,2009-11-07T03:00:00Z,26.4345,-81.9647,2.506,34.3,1111122 
SCCF RECON,ioos:station:SCCF:16:1,2009-11-07T04:00:00Z,26.4345,-81.9647,2.595,34.45,1111122 
SCCF RECON,ioos:station:SCCF:16:1,2009-11-07T05:00:00Z,26.4345,-81.9647,2.7,34.53,1111122 
SCCF RECON,ioos:station:SCCF:16:1,2009-11-07T06:00:00Z,26.4345,-81.9647,2.702,34.83,1111122 
SCCF RECON,ioos:station:SCCF:16:1,2009-11-07T07:00:00Z,26.4345,-81.9647,2.768,34.91,1111122 
SCCF RECON,ioos:station:SCCF:16:1,2009-11-07T08:00:00Z,26.4345,-81.9647,2.815,34.94,1111122 
SCCF RECON,ioos:station:SCCF:16:1,2009-11-07T09:00:00Z,26.4345,-81.9647,2.755,34.96,1111122 
SCCF RECON,ioos:station:SCCF:16:1,2009-11-07T10:00:00Z,26.4345,-81.9647,2.645,34.99,1111122 
SCCF RECON,ioos:station:SCCF:16:1,2009-11-07T11:00:00Z,26.4345,-81.9647,2.443,34.97,1111122 
SCCF RECON,ioos:station:SCCF:16:1,2009-11-07T12:00:00Z,26.4345,-81.9647,2.239,34.74,1111122 
SCCF RECON,ioos:station:SCCF:16:1,2009-11-07T13:00:00Z,26.4345,-81.9647,2.082,34.29,1111122 
SCCF RECON,ioos:station:SCCF:16:1,2009-11-07T14:00:00Z,26.4345,-81.9647,1.912,33.5,1111122 
SCCF RECON,ioos:station:SCCF:16:1,2009-11-07T15:00:00Z,26.4345,-81.9647,1.901,32.73,1111122 
SCCF RECON,ioos:station:SCCF:16:1,2009-11-07T16:00:00Z,26.4345,-81.9647,1.995,31.94,1111122 
SCCF RECON,ioos:station:SCCF:16:1,2009-11-07T17:00:00Z,26.4345,-81.9647,2.16,31.92,1111122 
SCCF RECON,ioos:station:SCCF:16:1,2009-11-07T18:00:00Z,26.4345,-81.9647,2.338,32.66,1111122 
SCCF RECON,ioos:station:SCCF:16:1,2009-11-07T19:00:00Z,26.4345,-81.9647,2.45,33.53,1111122 
SCCF RECON,ioos:station:SCCF:16:1,2009-11-07T20:00:00Z,26.4345,-81.9647,2.532,33.99,1111122 
SCCF RECON,ioos:station:SCCF:16:1,2009-11-07T21:00:00Z,26.4345,-81.9647,2.583,34.73,1111122 
SCCF RECON,ioos:station:SCCF:16:1,2009-11-07T22:00:00Z,26.4345,-81.9647,2.63,34.97,1111122 
SCCF RECON,ioos:station:SCCF:16:1,2009-11-07T23:00:00Z,26.4345,-81.9647,2.537,35.08,1111122 
SCCF RECON,ioos:station:SCCF:16:1,2009-11-08T00:00:00Z,26.4345,-81.9647,2.487,35.13,1111122 
SCCF RECON,ioos:station:SCCF:16:1,2009-11-08T01:00:00Z,26.4345,-81.9647,2.449,35.15,1111122 
SCCF RECON,ioos:station:SCCF:16:1,2009-11-08T02:00:00Z,26.4345,-81.9647,2.431,35.14,1111122 
SCCF RECON,ioos:station:SCCF:16:1,2009-11-08T03:00:00Z,26.4345,-81.9647,2.427,35.12,1111122 
SCCF RECON,ioos:station:SCCF:16:1,2009-11-08T04:00:00Z,26.4345,-81.9647,2.483,35.13,1111122 
SCCF RECON,ioos:station:SCCF:16:1,2009-11-08T05:00:00Z,26.4345,-81.9647,2.56,35.16,1111122 
SCCF RECON,ioos:station:SCCF:16:1,2009-11-08T06:00:00Z,26.4345,-81.9647,2.684,35.19,1111122 
SCCF RECON,ioos:station:SCCF:16:1,2009-11-08T07:00:00Z,26.4345,-81.9647,2.818,35.24,1111122 
SCCF RECON,ioos:station:SCCF:16:1,2009-11-08T08:00:00Z,26.4345,-81.9647,2.823,35.27,1111122 
SCCF RECON,ioos:station:SCCF:16:1,2009-11-08T09:00:00Z,26.4345,-81.9647,2.813,35.29,1111122 
SCCF RECON,ioos:station:SCCF:16:1,2009-11-08T10:00:00Z,26.4345,-81.9647,2.737,35.29,1111122 
SCCF RECON,ioos:station:SCCF:16:1,2009-11-08T11:00:00Z,26.4345,-81.9647,2.625,35.27,1111122 
SCCF RECON,ioos:station:SCCF:16:1,2009-11-08T12:00:00Z,26.4345,-81.9647,2.467,35.22,1111122 
SCCF RECON,ioos:station:SCCF:16:1,2009-11-08T13:00:00Z,26.4345,-81.9647,2.317,35.18,1111122 
SCCF RECON,ioos:station:SCCF:16:1,2009-11-08T14:00:00Z,26.4345,-81.9647,2.156,35.08,1111122 
SCCF RECON,ioos:station:SCCF:16:1,2009-11-08T15:00:00Z,26.4345,-81.9647,2.027,34.93,1111122 
SCCF RECON,ioos:station:SCCF:16:1,2009-11-08T16:00:00Z,26.4345,-81.9647,2.018,33.77,1111122 
SCCF RECON,ioos:station:SCCF:16:1,2009-11-08T17:00:00Z,26.4345,-81.9647,2.12,33.51,1111122 
SCCF RECON,ioos:station:SCCF:16:1,2009-11-08T18:00:00Z,26.4345,-81.9647,2.268,33.67,1111122 
SCCF RECON,ioos:station:SCCF:16:1,2009-11-08T19:00:00Z,26.4345,-81.9647,2.419,34.9,1111122 
SCCF RECON,ioos:station:SCCF:16:1,2009-11-08T20:00:00Z,26.4345,-81.9647,2.479,35.07,1111122 
SCCF RECON,ioos:station:SCCF:16:1,2009-11-08T21:00:00Z,26.4345,-81.9647,2.541,34.94,1111122 
SCCF RECON,ioos:station:SCCF:16:1,2009-11-08T22:00:00Z,26.4345,-81.9647,2.636,35.19,1111122 
SCCF RECON,ioos:station:SCCF:16:1,2009-11-08T23:00:00Z,26.4345,-81.9647,2.659,35.23,1111122 
SCCF RECON,ioos:station:SCCF:16:1,2009-11-09T00:00:00Z,26.4345,-81.9647,2.651,35.24,1111122 
SCCF RECON,ioos:station:SCCF:16:1,2009-11-09T01:00:00Z,26.4345,-81.9647,2.595,35.25,1111122 
SCCF RECON,ioos:station:SCCF:16:1,2009-11-09T02:00:00Z,26.4345,-81.9647,2.531,35.21,1111122 
SCCF RECON,ioos:station:SCCF:16:1,2009-11-09T03:00:00Z,26.4345,-81.9647,2.499,35.18,1111122 
SCCF RECON,ioos:station:SCCF:16:1,2009-11-09T04:00:00Z,26.4345,-81.9647,2.531,35.17,1111122 
SCCF RECON,ioos:station:SCCF:16:1,2009-11-09T05:00:00Z,26.4345,-81.9647,2.572,35.16,1111122 
SCCF RECON,ioos:station:SCCF:16:1,2009-11-09T06:00:00Z,26.4345,-81.9647,2.644,35.11,1111122 
SCCF RECON,ioos:station:SCCF:16:1,2009-11-09T07:00:00Z,26.4345,-81.9647,2.785,35.14,1111122 
SCCF RECON,ioos:station:SCCF:16:1,2009-11-09T08:00:00Z,26.4345,-81.9647,2.862,35.21,1111122 
SCCF RECON,ioos:station:SCCF:16:1,2009-11-09T09:00:00Z,26.4345,-81.9647,2.927,35.36,1111122 
SCCF RECON,ioos:station:SCCF:16:1,2009-11-09T10:00:00Z,26.4345,-81.9647,2.97,35.3,1111122 
SCCF RECON,ioos:station:SCCF:16:1,2009-11-09T11:00:00Z,26.4345,-81.9647,2.938,35.24,1111122 
SCCF RECON,ioos:station:SCCF:16:1,2009-11-09T12:00:00Z,26.4345,-81.9647,2.837,35.16,1111122 
SCCF RECON,ioos:station:SCCF:16:1,2009-11-09T13:00:00Z,26.4345,-81.9647,2.722,35.07,1111122 
SCCF RECON,ioos:station:SCCF:16:1,2009-11-09T14:00:00Z,26.4345,-81.9647,2.562,34.98,1111122 
SCCF RECON,ioos:station:SCCF:16:1,2009-11-09T15:00:00Z,26.4345,-81.9647,2.418,34.79,1111122 
SCCF RECON,ioos:station:SCCF:16:1,2009-11-09T16:00:00Z,26.4345,-81.9647,2.325,34.73,1111122 
SCCF RECON,ioos:station:SCCF:16:1,2009-11-09T17:00:00Z,26.4345,-81.9647,2.333,34.75,1111122 
SCCF RECON,ioos:station:SCCF:16:1,2009-11-09T18:00:00Z,26.4345,-81.9647,2.417,34.77,1111122 
SCCF RECON,ioos:station:SCCF:16:1,2009-11-09T19:00:00Z,26.4345,-81.9647,2.518,34.67,1111122 
SCCF RECON,ioos:station:SCCF:16:1,2009-11-09T20:00:00Z,26.4345,-81.9647,2.672,34.53,1111122 
SCCF RECON,ioos:station:SCCF:16:1,2009-11-09T21:00:00Z,26.4345,-81.9647,2.753,34.56,1111122 
SCCF RECON,ioos:station:SCCF:16:1,2009-11-09T22:00:00Z,26.4345,-81.9647,2.881,34.87,1111122 
SCCF RECON,ioos:station:SCCF:16:1,2009-11-09T23:00:00Z,26.4345,-81.9647,2.936,34.92,1111122 
SCCF RECON,ioos:station:SCCF:16:1,2009-11-10T00:00:00Z,26.4345,-81.9647,2.952,34.97,1111122 
SCCF RECON,ioos:station:SCCF:16:1,2009-11-10T01:00:00Z,26.4345,-81.9647,2.925,35.13,1111122 
SCCF RECON,ioos:station:SCCF:16:1,2009-11-10T02:00:00Z,26.4345,-81.9647,2.848,35.12,1111122 
SCCF RECON,ioos:station:SCCF:16:1,2009-11-10T03:00:00Z,26.4345,-81.9647,2.752,35.01,1111122 
SCCF RECON,ioos:station:SCCF:16:1,2009-11-10T04:00:00Z,26.4345,-81.9647,2.685,35.02,1111122 
SCCF RECON,ioos:station:SCCF:16:1,2009-11-10T05:00:00Z,26.4345,-81.9647,2.686,35.03,1111122 
SCCF RECON,ioos:station:SCCF:16:1,2009-11-10T06:00:00Z,26.4345,-81.9647,2.608,35.02,1111122 
SCCF RECON,ioos:station:SCCF:16:1,2009-11-10T07:00:00Z,26.4345,-81.9647,2.631,34.9,1111122 
SCCF RECON,ioos:station:SCCF:16:1,2009-11-10T08:00:00Z,26.4345,-81.9647,2.733,34.86,1111122 
SCCF RECON,ioos:station:SCCF:16:1,2009-11-10T09:00:00Z,26.4345,-81.9647,2.838,34.86,1111122 
SCCF RECON,ioos:station:SCCF:16:1,2009-11-10T10:00:00Z,26.4345,-81.9647,2.881,34.99,1111122 
SCCF RECON,ioos:station:SCCF:16:1,2009-11-10T11:00:00Z,26.4345,-81.9647,2.931,35.05,1111122 
SCCF RECON,ioos:station:SCCF:16:1,2009-11-10T12:00:00Z,26.4345,-81.9647,2.943,34.99,1111122 
SCCF RECON,ioos:station:SCCF:16:1,2009-11-10T13:00:00Z,26.4345,-81.9647,2.941,35.06,1111122 
SCCF RECON,ioos:station:SCCF:16:1,2009-11-10T14:00:00Z,26.4345,-81.9647,2.838,35.22,1111122 
SCCF RECON,ioos:station:SCCF:16:1,2009-11-10T15:00:00Z,26.4345,-81.9647,2.755,35.11,1111122 
SCCF RECON,ioos:station:SCCF:16:1,2009-11-10T16:00:00Z,26.4345,-81.9647,2.619,34.99,1111122 
SCCF RECON,ioos:station:SCCF:16:1,2009-11-10T17:00:00Z,26.4345,-81.9647,2.504,35.01,1111122 
SCCF RECON,ioos:station:SCCF:16:1,2009-11-10T18:00:00Z,26.4345,-81.9647,2.443,34.96,1111122 
SCCF RECON,ioos:station:SCCF:16:1,2009-11-10T19:00:00Z,26.4345,-81.9647,2.494,34.8,1111122 
SCCF RECON,ioos:station:SCCF:16:1,2009-11-10T20:00:00Z,26.4345,-81.9647,2.609,34.74,1111122 
SCCF RECON,ioos:station:SCCF:16:1,2009-11-10T21:00:00Z,26.4345,-81.9647,2.735,34.77,1111122 
SCCF RECON,ioos:station:SCCF:16:1,2009-11-10T22:00:00Z,26.4345,-81.9647,2.812,34.85,1111122 
SCCF RECON,ioos:station:SCCF:16:1,2009-11-10T23:00:00Z,26.4345,-81.9647,2.88,34.93,1111122 
SCCF RECON,ioos:station:SCCF:16:1,2009-11-11T00:00:00Z,26.4345,-81.9647,3.013,35.0,1111122 
SCCF RECON,ioos:station:SCCF:16:1,2009-11-11T01:00:00Z,26.4345,-81.9647,2.988,35.05,1111122 
SCCF RECON,ioos:station:SCCF:16:1,2009-11-11T02:00:00Z,26.4345,-81.9647,2.882,35.06,1111122 
SCCF RECON,ioos:station:SCCF:16:1,2009-11-11T03:00:00Z,26.4345,-81.9647,2.774,35.07,1111122 
SCCF RECON,ioos:station:SCCF:16:1,2009-11-11T04:00:00Z,26.4345,-81.9647,2.674,35.04,1111122 
SCCF RECON,ioos:station:SCCF:16:1,2009-11-11T05:00:00Z,26.4345,-81.9647,2.594,35.01,1111122 
SCCF RECON,ioos:station:SCCF:16:1,2009-11-11T06:00:00Z,26.4345,-81.9647,2.518,34.98,1111122 
SCCF RECON,ioos:station:SCCF:16:1,2009-11-11T07:00:00Z,26.4345,-81.9647,2.461,34.86,1111122 
SCCF RECON,ioos:station:SCCF:16:1,2009-11-11T08:00:00Z,26.4345,-81.9647,2.497,34.77,1111122 
SCCF RECON,ioos:station:SCCF:16:1,2009-11-11T09:00:00Z,26.4345,-81.9647,2.662,34.73,1111122 
SCCF RECON,ioos:station:SCCF:16:1,2009-11-11T10:00:00Z,26.4345,-81.9647,2.757,34.74,1111122 
SCCF RECON,ioos:station:SCCF:16:1,2009-11-11T11:00:00Z,26.4345,-81.9647,2.773,34.75,1111122 
SCCF RECON,ioos:station:SCCF:16:1,2009-11-11T12:00:00Z,26.4345,-81.9647,2.764,34.78,1111122 
SCCF RECON,ioos:station:SCCF:16:1,2009-11-11T13:00:00Z,26.4345,-81.9647,2.798,34.8,1111122 
SCCF RECON,ioos:station:SCCF:16:1,2009-11-11T14:00:00Z,26.4345,-81.9647,2.784,34.85,1111122 
SCCF RECON,ioos:station:SCCF:16:1,2009-11-11T15:00:00Z,26.4345,-81.9647,2.748,34.89,1111122 
SCCF RECON,ioos:station:SCCF:16:1,2009-11-11T16:00:00Z,26.4345,-81.9647,2.631,34.89,1111122 